1997,6,1,0,0,-1.24,01,9900.00,99,-.80,01,9900.00,99,9900.00,99
1997,6,1,0,5,-1.44,01,9900.00,99,-1.10,01,9900.00,99,9900.00,99
1997,6,1,0,10,-1.45,01,9900.00,99,-1.19,01,9900.00,99,9900.00,99
1997,6,1,0,15,-1.44,01,9900.00,99,-1.08,01,9900.00,99,9900.00,99
1997,6,1,0,20,-1.61,01,9900.00,99,-1.31,01,9900.00,99,9900.00,99
1997,6,1,0,25,-1.78,01,9900.00,99,-1.50,01,9900.00,99,9900.00,99
1997,6,1,0,30,-1.89,01,9900.00,99,-1.56,01,9900.00,99,9900.00,99
1997,6,1,0,35,-2.13,01,9900.00,99,-1.68,01,9900.00,99,9900.00,99
1997,6,1,0,40,-2.39,01,9900.00,99,-1.85,01,9900.00,99,9900.00,99
1997,6,1,0,45,-2.44,01,9900.00,99,-1.94,01,9900.00,99,9900.00,99
1997,6,1,0,50,-2.52,01,9900.00,99,-2.02,01,9900.00,99,9900.00,99
1997,6,1,0,55,-2.61,01,9900.00,99,-2.15,01,9900.00,99,9900.00,99
1997,6,1,1,0,-2.48,01,9900.00,99,-2.01,01,9900.00,99,9900.00,99
1997,6,1,1,5,-2.80,01,9900.00,99,-2.57,01,9900.00,99,9900.00,99
1997,6,1,1,10,-2.81,01,9900.00,99,-2.56,01,9900.00,99,9900.00,99
1997,6,1,1,15,-2.85,01,9900.00,99,-2.68,01,9900.00,99,9900.00,99
1997,6,1,1,20,-2.72,01,9900.00,99,-2.48,01,9900.00,99,9900.00,99
1997,6,1,1,25,-2.56,01,9900.00,99,-2.14,01,9900.00,99,9900.00,99
1997,6,1,1,30,-2.67,01,9900.00,99,-2.37,01,9900.00,99,9900.00,99
1997,6,1,1,35,-2.62,01,9900.00,99,-2.19,01,9900.00,99,9900.00,99
1997,6,1,1,40,-2.63,01,9900.00,99,-2.22,01,9900.00,99,9900.00,99
1997,6,1,1,45,-2.52,01,9900.00,99,-2.12,01,9900.00,99,9900.00,99
1997,6,1,1,50,-2.77,01,9900.00,99,-2.53,01,9900.00,99,9900.00,99
1997,6,1,1,55,-2.76,01,9900.00,99,-2.54,01,9900.00,99,9900.00,99
1997,6,1,2,0,-2.57,01,9900.00,99,-2.10,01,9900.00,99,9900.00,99
1997,6,1,2,5,-2.57,01,9900.00,99,-2.14,01,9900.00,99,9900.00,99
1997,6,1,2,10,-2.29,01,9900.00,99,-1.98,01,9900.00,99,9900.00,99
1997,6,1,2,15,-2.11,01,9900.00,99,-1.78,01,9900.00,99,9900.00,99
1997,6,1,2,20,-2.28,01,9900.00,99,-1.92,01,9900.00,99,9900.00,99
1997,6,1,2,25,-2.11,01,9900.00,99,-1.77,01,9900.00,99,9900.00,99
1997,6,1,2,30,-2.29,01,9900.00,99,-1.88,01,9900.00,99,9900.00,99
1997,6,1,2,35,-2.31,01,9900.00,99,-1.91,01,9900.00,99,9900.00,99
1997,6,1,2,40,-2.33,01,9900.00,99,-1.97,01,9900.00,99,9900.00,99
1997,6,1,2,45,-2.30,01,9900.00,99,-2.02,01,9900.00,99,9900.00,99
1997,6,1,2,50,-2.36,01,9900.00,99,-1.97,01,9900.00,99,9900.00,99
1997,6,1,2,55,-2.41,01,9900.00,99,-2.03,01,9900.00,99,9900.00,99
1997,6,1,3,0,-2.28,01,9900.00,99,-1.93,01,9900.00,99,9900.00,99
1997,6,1,3,5,-2.16,01,9900.00,99,-1.83,01,9900.00,99,9900.00,99
1997,6,1,3,10,-2.10,01,9900.00,99,-1.80,01,9900.00,99,9900.00,99
1997,6,1,3,15,-2.25,01,9900.00,99,-1.85,01,9900.00,99,9900.00,99
1997,6,1,3,20,-2.18,01,9900.00,99,-1.87,01,9900.00,99,9900.00,99
1997,6,1,3,25,-2.13,01,9900.00,99,-1.87,01,9900.00,99,9900.00,99
1997,6,1,3,30,-1.99,01,9900.00,99,-1.79,01,9900.00,99,9900.00,99
1997,6,1,3,35,-1.80,01,9900.00,99,-1.64,01,9900.00,99,9900.00,99
1997,6,1,3,40,-1.80,01,9900.00,99,-1.67,01,9900.00,99,9900.00,99
1997,6,1,3,45,-1.80,01,9900.00,99,-1.66,01,9900.00,99,9900.00,99
1997,6,1,3,50,-2.14,01,9900.00,99,-1.94,01,9900.00,99,9900.00,99
1997,6,1,3,55,-2.40,01,9900.00,99,-2.09,01,9900.00,99,9900.00,99
1997,6,1,4,0,-2.22,01,9900.00,99,-1.99,01,9900.00,99,9900.00,99
1997,6,1,4,5,-2.08,01,9900.00,99,-1.85,01,9900.00,99,9900.00,99
1997,6,1,4,10,-2.06,01,9900.00,99,-1.73,01,9900.00,99,9900.00,99
1997,6,1,4,15,-2.03,01,9900.00,99,-1.86,01,9900.00,99,9900.00,99
1997,6,1,4,20,-1.77,01,9900.00,99,-1.66,01,9900.00,99,9900.00,99
1997,6,1,4,25,-1.44,01,9900.00,99,-1.40,01,9900.00,99,9900.00,99
1997,6,1,4,30,-1.10,01,9900.00,99,-1.10,01,9900.00,99,9900.00,99
1997,6,1,4,35,-1.11,01,9900.00,99,-1.08,01,9900.00,99,9900.00,99
1997,6,1,4,40,-1.17,01,9900.00,99,-1.13,01,9900.00,99,9900.00,99
1997,6,1,4,45,-1.31,01,9900.00,99,-1.34,01,9900.00,99,9900.00,99
1997,6,1,4,50,-1.35,01,9900.00,99,-1.36,01,9900.00,99,9900.00,99
1997,6,1,4,55,-1.16,01,9900.00,99,-1.08,01,9900.00,99,9900.00,99
1997,6,1,5,0,-1.29,01,9900.00,99,-1.20,01,9900.00,99,9900.00,99
1997,6,1,5,5,-1.33,01,9900.00,99,-1.27,01,9900.00,99,9900.00,99
1997,6,1,5,10,-1.40,01,9900.00,99,-1.31,01,9900.00,99,9900.00,99
1997,6,1,5,15,-1.14,01,9900.00,99,-1.13,01,9900.00,99,9900.00,99
1997,6,1,5,20,.35,01,9900.00,99,.30,01,9900.00,99,9900.00,99
1997,6,1,5,25,3.39,01,9900.00,99,2.88,01,9900.00,99,9900.00,99
1997,6,1,5,30,9.48,01,9900.00,99,8.19,08,9900.00,99,9900.00,99
1997,6,1,5,35,11.44,01,9900.00,99,9.84,01,9900.00,99,9900.00,99
1997,6,1,5,40,19.14,01,9900.00,99,16.75,01,9900.00,99,9900.00,99
1997,6,1,5,45,25.31,01,9900.00,99,22.50,01,9900.00,99,9900.00,99
1997,6,1,5,50,31.18,01,9900.00,99,27.64,01,9900.00,99,9900.00,99
1997,6,1,5,55,36.60,01,9900.00,99,32.41,01,9900.00,99,9900.00,99
1997,6,1,6,0,46.55,01,9900.00,99,40.24,01,9900.00,99,9900.00,99
1997,6,1,6,5,79.15,01,9900.00,99,67.16,01,9900.00,99,9900.00,99
1997,6,1,6,10,94.08,01,9900.00,99,70.95,01,9900.00,99,9900.00,99
1997,6,1,6,15,87.15,01,9900.00,99,61.93,01,9900.00,99,9900.00,99
1997,6,1,6,20,44.33,01,9900.00,99,37.30,01,9900.00,99,9900.00,99
1997,6,1,6,25,56.01,02,9900.00,99,51.18,02,9900.00,99,9900.00,99
1997,6,1,6,30,112.92,02,9900.00,99,75.38,02,9900.00,99,9900.00,99
1997,6,1,6,35,153.97,02,9900.00,99,80.95,02,9900.00,99,9900.00,99
1997,6,1,6,40,69.94,02,9900.00,99,59.19,02,9900.00,99,9900.00,99
1997,6,1,6,45,50.18,02,9900.00,99,44.28,02,9900.00,99,9900.00,99
1997,6,1,6,50,99.93,02,9900.00,99,66.03,02,9900.00,99,9900.00,99
1997,6,1,6,55,201.32,02,9900.00,99,80.97,02,9900.00,99,9900.00,99
1997,6,1,7,0,224.49,02,9900.00,99,81.06,02,9900.00,99,9900.00,99
1997,6,1,7,5,247.13,02,9900.00,99,82.71,02,9900.00,99,9900.00,99
1997,6,1,7,10,263.25,02,9900.00,99,86.97,02,9900.00,99,9900.00,99
1997,6,1,7,15,278.28,02,9900.00,99,89.97,02,9900.00,99,9900.00,99
1997,6,1,7,20,214.22,02,9900.00,99,88.83,02,9900.00,99,9900.00,99
1997,6,1,7,25,325.86,02,9900.00,99,113.63,02,9900.00,99,9900.00,99
1997,6,1,7,30,370.71,02,9900.00,99,211.53,02,9900.00,99,9900.00,99
1997,6,1,7,35,241.13,02,9900.00,99,232.41,02,9900.00,99,9900.00,99
1997,6,1,7,40,206.44,02,9900.00,99,181.50,02,9900.00,99,9900.00,99
1997,6,1,7,45,193.09,02,9900.00,99,168.92,02,9900.00,99,9900.00,99
1997,6,1,7,50,187.28,02,9900.00,99,166.07,02,9900.00,99,9900.00,99
1997,6,1,7,55,207.65,02,9900.00,99,183.34,02,9900.00,99,9900.00,99
1997,6,1,8,0,244.10,02,9900.00,99,213.49,02,9900.00,99,9900.00,99
1997,6,1,8,5,259.12,02,9900.00,99,226.03,02,9900.00,99,9900.00,99
1997,6,1,8,10,297.18,02,9900.00,99,251.70,02,9900.00,99,9900.00,99
1997,6,1,8,15,253.11,02,9900.00,99,253.09,02,9900.00,99,9900.00,99
1997,6,1,8,20,207.15,02,9900.00,99,180.80,02,9900.00,99,9900.00,99
1997,6,1,8,25,181.21,02,9900.00,99,159.50,02,9900.00,99,9900.00,99
1997,6,1,8,30,207.69,02,9900.00,99,180.49,02,9900.00,99,9900.00,99
1997,6,1,8,35,235.15,02,9900.00,99,204.78,02,9900.00,99,9900.00,99
1997,6,1,8,40,249.56,02,9900.00,99,218.32,02,9900.00,99,9900.00,99
1997,6,1,8,45,248.52,02,9900.00,99,215.36,02,9900.00,99,9900.00,99
1997,6,1,8,50,215.30,02,9900.00,99,186.73,02,9900.00,99,9900.00,99
1997,6,1,8,55,243.87,02,9900.00,99,211.40,02,9900.00,99,9900.00,99
1997,6,1,9,0,243.30,02,9900.00,99,210.95,02,9900.00,99,9900.00,99
1997,6,1,9,5,280.56,02,9900.00,99,244.08,02,9900.00,99,9900.00,99
1997,6,1,9,10,295.11,02,9900.00,99,257.40,02,9900.00,99,9900.00,99
1997,6,1,9,15,325.60,02,9900.00,99,279.46,02,9900.00,99,9900.00,99
1997,6,1,9,20,285.04,02,9900.00,99,242.42,02,9900.00,99,9900.00,99
1997,6,1,9,25,222.24,02,9900.00,99,191.27,02,9900.00,99,9900.00,99
1997,6,1,9,30,224.42,02,9900.00,99,194.76,02,9900.00,99,9900.00,99
1997,6,1,9,35,276.52,02,9900.00,99,238.79,02,9900.00,99,9900.00,99
1997,6,1,9,40,347.95,02,9900.00,99,294.75,02,9900.00,99,9900.00,99
1997,6,1,9,45,319.03,02,9900.00,99,274.69,02,9900.00,99,9900.00,99
1997,6,1,9,50,363.15,02,9900.00,99,360.68,02,9900.00,99,9900.00,99
1997,6,1,9,55,374.69,02,9900.00,99,373.69,02,9900.00,99,9900.00,99
1997,6,1,10,0,344.53,02,9900.00,99,293.55,02,9900.00,99,9900.00,99
1997,6,1,10,5,387.66,02,9900.00,99,324.58,02,9900.00,99,9900.00,99
1997,6,1,10,10,396.41,02,9900.00,99,336.22,02,9900.00,99,9900.00,99
1997,6,1,10,15,356.61,02,9900.00,99,310.95,02,9900.00,99,9900.00,99
1997,6,1,10,20,439.15,02,9900.00,99,378.47,02,9900.00,99,9900.00,99
1997,6,1,10,25,539.83,02,9900.00,99,533.37,02,9900.00,99,9900.00,99
1997,6,1,10,30,495.58,02,9900.00,99,418.17,02,9900.00,99,9900.00,99
1997,6,1,10,35,472.46,02,9900.00,99,409.09,02,9900.00,99,9900.00,99
1997,6,1,10,40,422.80,02,9900.00,99,354.85,02,9900.00,99,9900.00,99
1997,6,1,10,45,447.66,02,9900.00,99,440.53,02,9900.00,99,9900.00,99
1997,6,1,10,50,556.99,02,9900.00,99,510.45,02,9900.00,99,9900.00,99
1997,6,1,10,55,693.33,02,9900.00,99,601.17,02,9900.00,99,9900.00,99
1997,6,1,11,0,502.58,02,9900.00,99,452.79,02,9900.00,99,9900.00,99
1997,6,1,11,5,332.87,02,9900.00,99,291.04,02,9900.00,99,9900.00,99
1997,6,1,11,10,243.73,02,9900.00,99,211.64,02,9900.00,99,9900.00,99
1997,6,1,11,15,175.21,02,9900.00,99,151.94,02,9900.00,99,9900.00,99
1997,6,1,11,20,144.15,02,9900.00,99,125.18,02,9900.00,99,9900.00,99
1997,6,1,11,25,119.38,02,9900.00,99,102.88,02,9900.00,99,9900.00,99
1997,6,1,11,30,91.10,16,9900.00,99,79.07,17,9900.00,99,9900.00,99
1997,6,1,11,35,56.96,28,9900.00,99,51.30,29,9900.00,99,9900.00,99
1997,6,1,11,40,43.70,32,9900.00,99,40.29,33,9900.00,99,9900.00,99
1997,6,1,11,45,29.08,36,9900.00,99,25.75,37,9900.00,99,9900.00,99
1997,6,1,11,50,18.32,40,9900.00,99,18.88,41,9900.00,99,9900.00,99
1997,6,1,11,55,7.89,40,9900.00,99,13.56,41,9900.00,99,9900.00,99
1997,6,1,12,0,-2.12,07,9900.00,99,1.50,01,9900.00,99,9900.00,99
1997,6,1,12,5,14.15,40,9900.00,99,13.22,41,9900.00,99,9900.00,99
1997,6,1,12,10,19.40,40,9900.00,99,18.84,41,9900.00,99,9900.00,99
1997,6,1,12,15,22.87,36,9900.00,99,22.79,37,9900.00,99,9900.00,99
1997,6,1,12,20,27.27,36,9900.00,99,22.92,37,9900.00,99,9900.00,99
1997,6,1,12,25,26.04,36,9900.00,99,21.97,37,9900.00,99,9900.00,99
1997,6,1,12,30,24.52,36,9900.00,99,20.64,37,9900.00,99,9900.00,99
1997,6,1,12,35,27.48,36,9900.00,99,23.12,37,9900.00,99,9900.00,99
1997,6,1,12,40,30.51,36,9900.00,99,25.50,37,9900.00,99,9900.00,99
1997,6,1,12,45,32.81,36,9900.00,99,27.68,37,9900.00,99,9900.00,99
1997,6,1,12,50,37.26,32,9900.00,99,31.52,33,9900.00,99,9900.00,99
1997,6,1,12,55,46.92,28,9900.00,99,39.88,29,9900.00,99,9900.00,99
1997,6,1,13,0,62.48,24,9900.00,99,53.15,25,9900.00,99,9900.00,99
1997,6,1,13,5,71.37,24,9900.00,99,60.96,25,9900.00,99,9900.00,99
1997,6,1,13,10,78.09,20,9900.00,99,67.05,21,9900.00,99,9900.00,99
1997,6,1,13,15,80.52,20,9900.00,99,69.17,21,9900.00,99,9900.00,99
1997,6,1,13,20,79.37,20,9900.00,99,67.75,21,9900.00,99,9900.00,99
1997,6,1,13,25,128.14,02,9900.00,99,109.26,02,9900.00,99,9900.00,99
1997,6,1,13,30,276.16,02,9900.00,99,236.66,02,9900.00,99,9900.00,99
1997,6,1,13,35,554.18,02,9900.00,99,462.39,02,9900.00,99,9900.00,99
1997,6,1,13,40,464.10,02,9900.00,99,439.23,02,9900.00,99,9900.00,99
1997,6,1,13,45,400.35,02,9900.00,99,334.61,02,9900.00,99,9900.00,99
1997,6,1,13,50,395.92,02,9900.00,99,331.05,02,9900.00,99,9900.00,99
1997,6,1,13,55,569.36,02,9900.00,99,494.29,02,9900.00,99,9900.00,99
1997,6,1,14,0,623.96,02,9900.00,99,540.88,02,9900.00,99,9900.00,99
1997,6,1,14,5,656.62,02,9900.00,99,522.77,02,9900.00,99,9900.00,99
1997,6,1,14,10,494.91,02,9900.00,99,478.94,02,9900.00,99,9900.00,99
1997,6,1,14,15,574.69,02,9900.00,99,522.24,02,9900.00,99,9900.00,99
1997,6,1,14,20,801.15,02,9900.00,99,503.46,02,9900.00,99,9900.00,99
1997,6,1,14,25,851.66,02,9900.00,99,531.70,02,9900.00,99,9900.00,99
1997,6,1,14,30,453.03,02,9900.00,99,415.41,02,9900.00,99,9900.00,99
1997,6,1,14,35,226.06,02,9900.00,99,195.99,02,9900.00,99,9900.00,99
1997,6,1,14,40,292.85,02,9900.00,99,254.33,02,9900.00,99,9900.00,99
1997,6,1,14,45,288.81,02,9900.00,99,248.40,02,9900.00,99,9900.00,99
1997,6,1,14,50,148.85,02,9900.00,99,128.89,02,9900.00,99,9900.00,99
1997,6,1,14,55,141.97,02,9900.00,99,123.83,02,9900.00,99,9900.00,99
1997,6,1,15,0,144.70,02,9900.00,99,123.76,02,9900.00,99,9900.00,99
1997,6,1,15,5,155.06,02,9900.00,99,134.59,02,9900.00,99,9900.00,99
1997,6,1,15,10,145.45,02,9900.00,99,127.35,02,9900.00,99,9900.00,99
1997,6,1,15,15,161.61,02,9900.00,99,139.65,02,9900.00,99,9900.00,99
1997,6,1,15,20,47.48,02,9900.00,99,41.46,02,9900.00,99,9900.00,99
1997,6,1,15,25,46.05,02,9900.00,99,39.53,02,9900.00,99,9900.00,99
1997,6,1,15,30,184.56,02,9900.00,99,154.68,02,9900.00,99,9900.00,99
1997,6,1,15,35,176.28,02,9900.00,99,154.87,02,9900.00,99,9900.00,99
1997,6,1,15,40,130.41,02,9900.00,99,115.00,02,9900.00,99,9900.00,99
1997,6,1,15,45,114.84,02,9900.00,99,100.52,02,9900.00,99,9900.00,99
1997,6,1,15,50,60.67,02,9900.00,99,52.79,02,9900.00,99,9900.00,99
1997,6,1,15,55,39.73,02,9900.00,99,34.03,02,9900.00,99,9900.00,99
1997,6,1,16,0,100.85,02,9900.00,99,99.17,02,9900.00,99,9900.00,99
1997,6,1,16,5,173.21,02,9900.00,99,146.59,02,9900.00,99,9900.00,99
1997,6,1,16,10,226.63,02,9900.00,99,225.40,02,9900.00,99,9900.00,99
1997,6,1,16,15,267.55,02,9900.00,99,267.22,02,9900.00,99,9900.00,99
1997,6,1,16,20,209.17,02,9900.00,99,178.24,02,9900.00,99,9900.00,99
1997,6,1,16,25,193.36,02,9900.00,99,184.58,02,9900.00,99,9900.00,99
1997,6,1,16,30,179.72,02,9900.00,99,172.95,02,9900.00,99,9900.00,99
1997,6,1,16,35,173.49,02,9900.00,99,147.64,02,9900.00,99,9900.00,99
1997,6,1,16,40,158.13,02,9900.00,99,134.70,02,9900.00,99,9900.00,99
1997,6,1,16,45,186.12,02,9900.00,99,155.99,02,9900.00,99,9900.00,99
1997,6,1,16,50,161.70,02,9900.00,99,140.23,02,9900.00,99,9900.00,99
1997,6,1,16,55,137.44,02,9900.00,99,119.07,02,9900.00,99,9900.00,99
1997,6,1,17,0,118.26,02,9900.00,99,103.67,02,9900.00,99,9900.00,99
1997,6,1,17,5,117.32,02,9900.00,99,101.43,02,9900.00,99,9900.00,99
1997,6,1,17,10,117.01,02,9900.00,99,101.10,02,9900.00,99,9900.00,99
1997,6,1,17,15,102.94,02,9900.00,99,88.34,02,9900.00,99,9900.00,99
1997,6,1,17,20,86.11,02,9900.00,99,74.09,02,9900.00,99,9900.00,99
1997,6,1,17,25,73.54,02,9900.00,99,63.60,02,9900.00,99,9900.00,99
1997,6,1,17,30,70.91,02,9900.00,99,61.57,02,9900.00,99,9900.00,99
1997,6,1,17,35,67.41,02,9900.00,99,58.55,02,9900.00,99,9900.00,99
1997,6,1,17,40,65.26,02,9900.00,99,56.35,02,9900.00,99,9900.00,99
1997,6,1,17,45,65.04,02,9900.00,99,56.50,02,9900.00,99,9900.00,99
1997,6,1,17,50,61.34,02,9900.00,99,53.52,02,9900.00,99,9900.00,99
1997,6,1,17,55,59.80,02,9900.00,99,52.05,02,9900.00,99,9900.00,99
1997,6,1,18,0,63.50,02,9900.00,99,54.75,02,9900.00,99,9900.00,99
1997,6,1,18,5,55.86,02,9900.00,99,48.56,02,9900.00,99,9900.00,99
1997,6,1,18,10,46.78,02,9900.00,99,40.94,02,9900.00,99,9900.00,99
1997,6,1,18,15,39.77,02,9900.00,99,35.20,02,9900.00,99,9900.00,99
1997,6,1,18,20,37.27,02,9900.00,99,33.12,02,9900.00,99,9900.00,99
1997,6,1,18,25,40.82,02,9900.00,99,35.74,02,9900.00,99,9900.00,99
1997,6,1,18,30,46.59,01,9900.00,99,39.77,01,9900.00,99,9900.00,99
1997,6,1,18,35,42.69,01,9900.00,99,37.75,01,9900.00,99,9900.00,99
1997,6,1,18,40,40.70,01,9900.00,99,35.02,01,9900.00,99,9900.00,99
1997,6,1,18,45,32.62,01,9900.00,99,29.10,01,9900.00,99,9900.00,99
1997,6,1,18,50,23.24,01,9900.00,99,20.88,01,9900.00,99,9900.00,99
1997,6,1,18,55,17.50,01,9900.00,99,16.07,01,9900.00,99,9900.00,99
1997,6,1,19,0,10.29,01,9900.00,99,9.67,01,9900.00,99,9900.00,99
1997,6,1,19,5,6.77,01,9900.00,99,6.38,01,9900.00,99,9900.00,99
1997,6,1,19,10,4.95,01,9900.00,99,4.86,01,9900.00,99,9900.00,99
1997,6,1,19,15,3.52,01,9900.00,99,3.65,01,9900.00,99,9900.00,99
1997,6,1,19,20,1.56,01,9900.00,99,2.03,08,9900.00,99,9900.00,99
1997,6,1,19,25,-.39,01,9900.00,99,.58,01,9900.00,99,9900.00,99
1997,6,1,19,30,-1.16,01,9900.00,99,-.26,01,9900.00,99,9900.00,99
1997,6,1,19,35,-1.27,01,9900.00,99,-.27,01,9900.00,99,9900.00,99
1997,6,1,19,40,-1.41,01,9900.00,99,-.28,01,9900.00,99,9900.00,99
1997,6,1,19,45,-1.49,01,9900.00,99,-.13,01,9900.00,99,9900.00,99
1997,6,1,19,50,-1.82,01,9900.00,99,-.59,01,9900.00,99,9900.00,99
1997,6,1,19,55,-2.04,01,9900.00,99,-.73,01,9900.00,99,9900.00,99
1997,6,1,20,0,-2.32,01,9900.00,99,-.78,01,9900.00,99,9900.00,99
1997,6,1,20,5,-2.29,01,9900.00,99,-.80,01,9900.00,99,9900.00,99
1997,6,1,20,10,-2.40,01,9900.00,99,-.85,01,9900.00,99,9900.00,99
1997,6,1,20,15,-2.93,01,9900.00,99,-1.25,01,9900.00,99,9900.00,99
1997,6,1,20,20,-2.62,01,9900.00,99,-1.04,01,9900.00,99,9900.00,99
1997,6,1,20,25,-1.68,01,9900.00,99,-.13,01,9900.00,99,9900.00,99
1997,6,1,20,30,-1.41,01,9900.00,99,.45,01,9900.00,99,9900.00,99
1997,6,1,20,35,-1.94,01,9900.00,99,-.39,01,9900.00,99,9900.00,99
1997,6,1,20,40,-2.41,01,9900.00,99,-.79,01,9900.00,99,9900.00,99
1997,6,1,20,45,-2.46,01,9900.00,99,-.84,01,9900.00,99,9900.00,99
1997,6,1,20,50,-2.27,01,9900.00,99,-.75,01,9900.00,99,9900.00,99
1997,6,1,20,55,-1.79,01,9900.00,99,-.28,01,9900.00,99,9900.00,99
1997,6,1,21,0,-1.63,01,9900.00,99,-.10,01,9900.00,99,9900.00,99
1997,6,1,21,5,-1.78,01,9900.00,99,-.19,01,9900.00,99,9900.00,99
1997,6,1,21,10,-2.46,01,9900.00,99,-.85,01,9900.00,99,9900.00,99
1997,6,1,21,15,-2.95,01,9900.00,99,-1.30,01,9900.00,99,9900.00,99
1997,6,1,21,20,-2.96,01,9900.00,99,-1.40,01,9900.00,99,9900.00,99
1997,6,1,21,25,-2.97,01,9900.00,99,-1.53,01,9900.00,99,9900.00,99
1997,6,1,21,30,-2.93,01,9900.00,99,-1.50,01,9900.00,99,9900.00,99
1997,6,1,21,35,-2.73,01,9900.00,99,-1.44,01,9900.00,99,9900.00,99
1997,6,1,21,40,-2.36,01,9900.00,99,-1.19,01,9900.00,99,9900.00,99
1997,6,1,21,45,-1.81,01,9900.00,99,-.74,01,9900.00,99,9900.00,99
1997,6,1,21,50,-1.86,01,9900.00,99,-.73,01,9900.00,99,9900.00,99
1997,6,1,21,55,-2.36,01,9900.00,99,-1.14,01,9900.00,99,9900.00,99
1997,6,1,22,0,-2.49,01,9900.00,99,-1.30,01,9900.00,99,9900.00,99
1997,6,1,22,5,-2.27,01,9900.00,99,-1.19,01,9900.00,99,9900.00,99
1997,6,1,22,10,-2.18,01,9900.00,99,-1.05,01,9900.00,99,9900.00,99
1997,6,1,22,15,-2.22,01,9900.00,99,-1.14,01,9900.00,99,9900.00,99
1997,6,1,22,20,-2.14,01,9900.00,99,-1.19,01,9900.00,99,9900.00,99
1997,6,1,22,25,-2.20,01,9900.00,99,-1.30,01,9900.00,99,9900.00,99
1997,6,1,22,30,-2.40,01,9900.00,99,-1.52,01,9900.00,99,9900.00,99
1997,6,1,22,35,-2.63,01,9900.00,99,-1.62,01,9900.00,99,9900.00,99
1997,6,1,22,40,-2.53,01,9900.00,99,-1.60,01,9900.00,99,9900.00,99
1997,6,1,22,45,-2.23,01,9900.00,99,-1.48,01,9900.00,99,9900.00,99
1997,6,1,22,50,-2.31,01,9900.00,99,-1.52,01,9900.00,99,9900.00,99
1997,6,1,22,55,-2.33,01,9900.00,99,-1.56,01,9900.00,99,9900.00,99
1997,6,1,23,0,-2.13,01,9900.00,99,-1.44,01,9900.00,99,9900.00,99
1997,6,1,23,5,-2.20,01,9900.00,99,-1.47,01,9900.00,99,9900.00,99
1997,6,1,23,10,-2.21,01,9900.00,99,-1.56,01,9900.00,99,9900.00,99
1997,6,1,23,15,-1.95,01,9900.00,99,-1.43,01,9900.00,99,9900.00,99
1997,6,1,23,20,-1.75,01,9900.00,99,-1.26,01,9900.00,99,9900.00,99
1997,6,1,23,25,-1.79,01,9900.00,99,-1.35,01,9900.00,99,9900.00,99
1997,6,1,23,30,-1.97,01,9900.00,99,-1.50,01,9900.00,99,9900.00,99
1997,6,1,23,35,-1.99,01,9900.00,99,-1.54,01,9900.00,99,9900.00,99
1997,6,1,23,40,-1.89,01,9900.00,99,-1.41,01,9900.00,99,9900.00,99
1997,6,1,23,45,-1.92,01,9900.00,99,-1.50,01,9900.00,99,9900.00,99
1997,6,1,23,50,-1.88,01,9900.00,99,-1.42,01,9900.00,99,9900.00,99
1997,6,1,23,55,-1.95,01,9900.00,99,-1.50,01,9900.00,99,9900.00,99
1997,6,2,0,0,-2.00,01,9900.00,99,-1.53,01,9900.00,99,9900.00,99
1997,6,2,0,5,-2.01,01,9900.00,99,-1.56,01,9900.00,99,9900.00,99
1997,6,2,0,10,-2.20,01,9900.00,99,-1.57,01,9900.00,99,9900.00,99
1997,6,2,0,15,-2.25,01,9900.00,99,-1.60,01,9900.00,99,9900.00,99
1997,6,2,0,20,-2.32,01,9900.00,99,-1.61,01,9900.00,99,9900.00,99
1997,6,2,0,25,-2.35,01,9900.00,99,-1.62,01,9900.00,99,9900.00,99
1997,6,2,0,30,-2.39,01,9900.00,99,-1.64,01,9900.00,99,9900.00,99
1997,6,2,0,35,-2.22,01,9900.00,99,-1.62,01,9900.00,99,9900.00,99
1997,6,2,0,40,-2.05,01,9900.00,99,-1.57,01,9900.00,99,9900.00,99
1997,6,2,0,45,-2.22,01,9900.00,99,-1.64,01,9900.00,99,9900.00,99
1997,6,2,0,50,-2.09,01,9900.00,99,-1.59,01,9900.00,99,9900.00,99
1997,6,2,0,55,-2.01,01,9900.00,99,-1.58,01,9900.00,99,9900.00,99
1997,6,2,1,0,-1.78,01,9900.00,99,-1.46,01,9900.00,99,9900.00,99
1997,6,2,1,5,-1.84,01,9900.00,99,-1.55,01,9900.00,99,9900.00,99
1997,6,2,1,10,-1.71,01,9900.00,99,-1.44,01,9900.00,99,9900.00,99
1997,6,2,1,15,-1.60,01,9900.00,99,-1.51,01,9900.00,99,9900.00,99
1997,6,2,1,20,-1.84,01,9900.00,99,-1.58,01,9900.00,99,9900.00,99
1997,6,2,1,25,-1.95,01,9900.00,99,-1.62,01,9900.00,99,9900.00,99
1997,6,2,1,30,-1.76,01,9900.00,99,-1.54,01,9900.00,99,9900.00,99
1997,6,2,1,35,-1.65,01,9900.00,99,-1.43,01,9900.00,99,9900.00,99
1997,6,2,1,40,-1.60,01,9900.00,99,-1.41,01,9900.00,99,9900.00,99
1997,6,2,1,45,-1.66,01,9900.00,99,-1.48,01,9900.00,99,9900.00,99
1997,6,2,1,50,-1.65,01,9900.00,99,-1.50,01,9900.00,99,9900.00,99
1997,6,2,1,55,-1.53,01,9900.00,99,-1.27,01,9900.00,99,9900.00,99
1997,6,2,2,0,-1.54,01,9900.00,99,-1.37,01,9900.00,99,9900.00,99
1997,6,2,2,5,-1.60,01,9900.00,99,-1.45,01,9900.00,99,9900.00,99
1997,6,2,2,10,-1.64,01,9900.00,99,-1.48,01,9900.00,99,9900.00,99
1997,6,2,2,15,-1.70,01,9900.00,99,-1.56,01,9900.00,99,9900.00,99
1997,6,2,2,20,-1.76,01,9900.00,99,-1.54,01,9900.00,99,9900.00,99
1997,6,2,2,25,-1.63,01,9900.00,99,-1.46,01,9900.00,99,9900.00,99
1997,6,2,2,30,-1.52,01,9900.00,99,-1.29,01,9900.00,99,9900.00,99
1997,6,2,2,35,-1.46,01,9900.00,99,-1.27,01,9900.00,99,9900.00,99
1997,6,2,2,40,-1.45,01,9900.00,99,-1.27,01,9900.00,99,9900.00,99
1997,6,2,2,45,-1.50,01,9900.00,99,-1.41,01,9900.00,99,9900.00,99
1997,6,2,2,50,-1.67,01,9900.00,99,-1.54,01,9900.00,99,9900.00,99
1997,6,2,2,55,-1.52,01,9900.00,99,-1.42,01,9900.00,99,9900.00,99
1997,6,2,3,0,-1.43,01,9900.00,99,-1.30,01,9900.00,99,9900.00,99
1997,6,2,3,5,-1.40,01,9900.00,99,-1.21,01,9900.00,99,9900.00,99
1997,6,2,3,10,-1.41,01,9900.00,99,-1.21,01,9900.00,99,9900.00,99
1997,6,2,3,15,-1.64,01,9900.00,99,-1.52,01,9900.00,99,9900.00,99
1997,6,2,3,20,-1.76,01,9900.00,99,-1.58,01,9900.00,99,9900.00,99
1997,6,2,3,25,-1.67,01,9900.00,99,-1.52,01,9900.00,99,9900.00,99
1997,6,2,3,30,-1.63,01,9900.00,99,-1.52,01,9900.00,99,9900.00,99
1997,6,2,3,35,-1.68,01,9900.00,99,-1.56,01,9900.00,99,9900.00,99
1997,6,2,3,40,-1.69,01,9900.00,99,-1.58,01,9900.00,99,9900.00,99
1997,6,2,3,45,-1.67,01,9900.00,99,-1.59,01,9900.00,99,9900.00,99
1997,6,2,3,50,-1.65,01,9900.00,99,-1.50,01,9900.00,99,9900.00,99
1997,6,2,3,55,-1.71,01,9900.00,99,-1.54,01,9900.00,99,9900.00,99
1997,6,2,4,0,-1.71,01,9900.00,99,-1.54,01,9900.00,99,9900.00,99
1997,6,2,4,5,-1.88,01,9900.00,99,-1.61,01,9900.00,99,9900.00,99
1997,6,2,4,10,-2.05,01,9900.00,99,-1.63,01,9900.00,99,9900.00,99
1997,6,2,4,15,-1.80,01,9900.00,99,-1.60,01,9900.00,99,9900.00,99
1997,6,2,4,20,-1.85,01,9900.00,99,-1.60,01,9900.00,99,9900.00,99
1997,6,2,4,25,-1.78,01,9900.00,99,-1.60,01,9900.00,99,9900.00,99
1997,6,2,4,30,-1.50,01,9900.00,99,-1.27,01,9900.00,99,9900.00,99
1997,6,2,4,35,-1.44,01,9900.00,99,-1.23,01,9900.00,99,9900.00,99
1997,6,2,4,40,-1.57,01,9900.00,99,-1.39,01,9900.00,99,9900.00,99
1997,6,2,4,45,-1.47,01,9900.00,99,-1.30,01,9900.00,99,9900.00,99
1997,6,2,4,50,-1.61,01,9900.00,99,-1.49,01,9900.00,99,9900.00,99
1997,6,2,4,55,-1.68,01,9900.00,99,-1.56,01,9900.00,99,9900.00,99
1997,6,2,5,0,-1.65,01,9900.00,99,-1.55,01,9900.00,99,9900.00,99
1997,6,2,5,5,-1.62,01,9900.00,99,-1.49,01,9900.00,99,9900.00,99
1997,6,2,5,10,-1.51,01,9900.00,99,-1.40,01,9900.00,99,9900.00,99
1997,6,2,5,15,-1.08,01,9900.00,99,-.82,01,9900.00,99,9900.00,99
1997,6,2,5,20,.43,01,9900.00,99,.61,01,9900.00,99,9900.00,99
1997,6,2,5,25,1.73,01,9900.00,99,1.67,01,9900.00,99,9900.00,99
1997,6,2,5,30,3.89,01,9900.00,99,3.57,01,9900.00,99,9900.00,99
1997,6,2,5,35,7.42,01,9900.00,99,6.60,01,9900.00,99,9900.00,99
1997,6,2,5,40,12.56,01,9900.00,99,11.12,01,9900.00,99,9900.00,99
1997,6,2,5,45,19.78,01,9900.00,99,17.34,01,9900.00,99,9900.00,99
1997,6,2,5,50,24.88,01,9900.00,99,21.84,01,9900.00,99,9900.00,99
1997,6,2,5,55,39.30,01,9900.00,99,33.70,01,9900.00,99,9900.00,99
1997,6,2,6,0,42.36,01,9900.00,99,40.22,01,9900.00,99,9900.00,99
1997,6,2,6,5,39.56,01,9900.00,99,35.12,01,9900.00,99,9900.00,99
1997,6,2,6,10,37.37,01,9900.00,99,36.83,01,9900.00,99,9900.00,99
1997,6,2,6,15,61.35,01,9900.00,99,48.84,01,9900.00,99,9900.00,99
1997,6,2,6,20,63.27,02,9900.00,99,55.67,02,9900.00,99,9900.00,99